Location: Archemont
(49.1579°N, 1.7598°E)
Time: 19:50:30
(UTC+00:00)

S-56A Canister/Altair - Pass Details

Date: 19 April 2024
Orbit: 638 x 2488 km, 38.9° (Epoch: 20 May)

Event Time Altitude Azimuth Distance (km) Brightness Sun altitude
Rises 17:25:54 0° 229° (SW) 3,278 11.5 12.9°
Reaches altitude 10° 17:28:19 10° 218° (SW) 2,514 10.8 12.5°
Maximum altitude 17:33:28 30° 158° (SSE) 1,815 9.3 11.7°
Drops below altitude 10° 17:40:34 10° 101° (ESE) 3,525 10.3 10.5°
Sets 17:44:37 0° 93° (E) 4,844 10.9 9.9°
